Weather History for KATW - January, 2013

Change the Weather History Date:

Sunday, January 13, 2013

  Actual Average Record
Temperature  
Mean Temperature 30 °F -  
Max Temperature 51 °F 23 °F 51 °F (2013)
Min Temperature 10 °F 9 °F -11 °F (1965)
Degree Days  
Heating Degree Days 34    
Moisture  
Dew Point 9 °F    
Average Humidity 69    
Maximum Humidity 74    
Minimum Humidity 15    
Precipitation  
Precipitation 0.00 in - - ()
Sea Level Pressure  
Sea Level Pressure 29.99 in    
Wind  
Wind Speed 12 mph (WNW)    
Max Wind Speed 21 mph    
Max Gust Speed 29 mph    
Visibility 10 miles    
Events Snow    
Averages and records for this station are not official NWS values.
T = Trace of Precipitation, MM = Missing Value Source: NWS Daily Summary

Daily Weather History Graph

Daily Weather History Graph

Search for Another Location

Airport or City:

Trip Planner

Search our weather history database for the weather conditions in past years. The results will help you decide how hot, cold, wet, or windy it might be!

Date:

Astronomy

Jan. 13, 2013 Rise Set
Actual Time 7:27 AM CST 4:38 PM CST
Civil Twilight 6:54 AM CST 5:11 PM CST
Nautical Twilight 6:18 AM CST 5:47 PM CST
Astronomical Twilight 5:44 AM CST 6:22 PM CST
Moon 8:19 AM CST (1/13) 7:24 PM CST (1/13)
Length of Visible Light 10h 16m
Length of Day
9h 11m
Waxing Crescent, 5% of the Moon is Illuminated
Jan 13
Waxing Crescent
Jan 18
First Quarter
Jan 26
Full
Feb 3
Last Quarter
Feb 10
New

Hourly Weather History & Observations

Time (CST) Temp. Windchill Dew Point Humidity Pressure Visibility Wind Dir Wind Speed Gust Speed Precip Events Conditions
12:15 AM 21.2 °F 10.1 °F 14.0 °F 74% 29.92 in 10.0 mi NW 10.4 mph - N/A   Mostly Cloudy
12:35 AM 21.2 °F 9.5 °F 14.0 °F 74% 29.93 in 10.0 mi WNW 11.5 mph - N/A   Overcast
12:55 AM 21.2 °F 9.5 °F 14.0 °F 74% 29.93 in 10.0 mi WNW 11.5 mph - N/A   Overcast
1:15 AM 21.2 °F 9.5 °F 12.2 °F 68% 29.92 in 10.0 mi WNW 11.5 mph - N/A   Overcast
1:35 AM 21.2 °F 8.9 °F 12.2 °F 68% 29.95 in 10.0 mi West 12.7 mph - N/A   Overcast
1:55 AM 21.2 °F 10.9 °F 12.2 °F 68% 29.93 in 10.0 mi WNW 9.2 mph - N/A   Overcast
2:15 AM 19.4 °F 7.2 °F 12.2 °F 74% 29.93 in 10.0 mi NNW 11.5 mph - N/A   Overcast
2:35 AM 19.4 °F 7.2 °F 12.2 °F 74% 29.89 in 10.0 mi North 11.5 mph - N/A   Overcast
2:55 AM 19.4 °F 7.2 °F 12.2 °F 74% 29.91 in 10.0 mi NNW 11.5 mph - N/A   Scattered Clouds
3:15 AM 17.6 °F 8.2 °F 10.4 °F 73% 29.91 in 10.0 mi NW 6.9 mph - N/A   Clear
3:35 AM 19.4 °F 8.6 °F 10.4 °F 68% 29.92 in 10.0 mi NW 9.2 mph - N/A   Mostly Cloudy
3:55 AM 19.4 °F 8.6 °F 10.4 °F 68% 29.93 in 10.0 mi NW 9.2 mph - N/A   Overcast
4:15 AM 17.6 °F 5.0 °F 10.4 °F 73% 29.94 in 10.0 mi WNW 11.5 mph - N/A   Overcast
5:20 AM 17.6 °F 7.3 °F 8.6 °F 68% 29.90 in 10.0 mi NW 8.1 mph - N/A   Overcast
6:45 AM 15.8 °F 2.7 °F 8.6 °F 73% 29.96 in 10.0 mi West 11.5 mph - N/A   Overcast
7:45 AM 15.8 °F 3.4 °F 8.6 °F 73% 29.98 in 10.0 mi West 10.4 mph - N/A   Mostly Cloudy
8:45 AM 15.8 °F 0.9 °F 8.6 °F 73% 30.00 in 10.0 mi West 15.0 mph - N/A   Mostly Cloudy
9:45 AM 17.6 °F 3.2 °F 8.6 °F 68% 30.00 in 10.0 mi WNW 15.0 mph - N/A   Mostly Cloudy
10:45 AM 17.6 °F 5.7 °F 8.6 °F 68% 29.97 in 10.0 mi WNW 10.4 mph - N/A   Mostly Cloudy
11:45 AM 17.6 °F 3.7 °F 8.6 °F 68% 29.97 in 10.0 mi West 13.8 mph - N/A   Mostly Cloudy
1:45 PM 19.4 °F 7.9 °F 8.6 °F 63% 29.96 in 10.0 mi West 10.4 mph - N/A   Mostly Cloudy
3:45 PM 17.6 °F 4.3 °F 8.6 °F 68% 29.99 in 10.0 mi West 12.7 mph - N/A   Overcast
4:45 PM 15.8 °F 2.1 °F 8.6 °F 73% 29.98 in 7.0 mi West 12.7 mph - N/A Snow Light Snow
5:45 PM 15.8 °F 0.3 °F 8.6 °F 73% 30.01 in 10.0 mi West 16.1 mph - N/A   Overcast
7:45 PM 14.0 °F -2.0 °F 6.8 °F 73% 30.05 in 10.0 mi West 16.1 mph 24.2 mph N/A   Overcast
8:45 PM 14.0 °F -2.5 °F 6.8 °F 73% 30.07 in 10.0 mi West 17.3 mph 26.5 mph N/A   Overcast
9:45 PM 51.8 °F - 5.0 °F 15% 30.09 in 10.0 mi West 17.3 mph 24.2 mph N/A   Mostly Cloudy
9:55 PM 12.2 °F -6.3 °F 5.0 °F 73% 30.10 in 10.0 mi West 20.7 mph 25.3 mph N/A   Mostly Cloudy
10:35 PM 12.2 °F -4.8 °F 3.2 °F 67% 30.12 in 10.0 mi West 17.3 mph 27.6 mph N/A   Overcast
10:45 PM 10.4 °F -8.6 °F 3.2 °F 73% 30.12 in 10.0 mi West 20.7 mph 28.8 mph N/A   Mostly Cloudy
10:55 PM 10.4 °F -8.2 °F 3.2 °F 73% 30.14 in 10.0 mi West 19.6 mph 23.0 mph N/A   Overcast
11:35 PM 10.4 °F -8.2 °F 1.4 °F 67% 30.15 in 10.0 mi West 19.6 mph 25.3 mph N/A   Clear
11:55 PM 10.4 °F -5.4 °F 1.4 °F 67% 30.15 in 10.0 mi West 13.8 mph - N/A   Clear